Regional Weather Roundup
Issued by NWS

Home | Current Version | Previous Version | Text Only | Print | Product List | Glossary On
Versions: 1 2 3 4 5 6 7 8 9 10 11 12 13 14 15 16 17 18 19 20 21 22 23 24 25 26 27 28 29 30 31 32 33 34 35 36 37 38 39 40 41 42 43 44 45 46 47 48 49 50
000
ASUS43 KLOT 191906
RWRIL

ILLINOIS REGIONAL WEATHER ROUNDUP
NATIONAL WEATHER SERVICE CHICAGO/ROMEOVILLE IL
200 PM CDT FRI SEP 19 2014

NOTE: "FAIR" INDICATES FEW OR NO CLOUDS BELOW 12,000 FEET WITH NO
SIGNIFICANT WEATHER AND/OR OBSTRUCTIONS TO VISIBILITY.

* THESE STATIONS ARE NOT UNDER NWS QUALITY CONTROL. THEY ALSO MAY NOT
  REPORT WEATHER SUCH AS PRECIPITATION OR FOG.

ILZ001-002-007-009-015-016-024-192000-
NORTHWEST ILLINOIS

CITY           SKY/WX    TMP DP  RH WIND       PRES   REMARKS
MOLINE         SUNNY     74  52  46 S13G21    30.02F
STERLING*      SUNNY     75  50  41 S9G16     30.04F
SAVANNA*       SUNNY     76  47  35 S17G23    30.02F
$$

ILZ003-004-008-010-011-017-018-192000-
NORTH CENTRAL ILLINOIS

CITY           SKY/WX    TMP DP  RH WIND       PRES   REMARKS
ROCKFORD       MOSUNNY   74  49  41 S21G31    30.05F
FREEPORT*      SUNNY     73  51  47 S14G23    30.05F
ROCHELLE*      SUNNY     73  47  39 S12G24    30.06F
DE KALB*       SUNNY     71  50  48 S22G28    30.08F
PERU*          SUNNY     75  48  38 S16G24    30.07F
$$

ILZ005-006-012>014-019>023-192000-
NORTHEAST ILLINOIS

CITY           SKY/WX    TMP DP  RH WIND       PRES   REMARKS
CHICAGO-OHARE  MOSUNNY   73  46  38 S20G26    30.08F
CHICAGO-MIDWAY MOSUNNY   74  46  36 S13G23    30.09F
AURORA         SUNNY     74  47  38 S17       30.08F
LANSING*       SUNNY     73  48  41 S17       30.11F
JOLIET*        SUNNY     73  43  33 S13       30.10F
WAUKEGAN       SUNNY     72  47  40 S21G26    30.07F
DUPAGE AIRPORT SUNNY     74  48  39 S16G23    30.08F
KANKAKEE*      SUNNY     74  47  38 SE14      30.10F
WHEELING       SUNNY     75  45  34 S18       30.09F
MORRIS*        SUNNY     75  47  36 S17       30.08F
ROMEOVILLE*    SUNNY     73  44  34 S16G24    30.09F
NORTHERLY ISL    N/A     72  44  36 S13         N/A
$$

LMZ740>746-192000-
SOUTHERN LAKE MICHIGAN

STATION/POSITION SKY/WX   TEMP    WIND        PRES    VSBY  WAVE
                          AIR SEA DIR/SP/G                  HT/PER
                          (F)     (DEG/KT/KT) (MB)    (MI)  (FT/S)
SOUTHERN BUOY              64 65  180/ 16/ 17 1019.3F         3/ 6
WAUKEGAN HARBOR            65     150/ 14/ 17   N/A
HARRISON CRIB              67     170/ 16/ 18   N/A
BURNHAM HARBOR             72     160/ 15/ 17   N/A
CALUMET HARBOR             71     160/ 12/ 17 1017.9F
MICHIGAN CITY              69     160/ 14/ 20   N/A
MICHIGAN CITY 6N           69 65  160/ 10/ 14   N/A           1/ 2
ST. JOSEPH                 68 66  140/ 12/ 16   N/A           1/ 2
$$

ILZ025>027-034>036-040-047-049-050-058-095>099-192000-
WEST-CENTRAL ILLINOIS

CITY           SKY/WX    TMP DP  RH WIND       PRES   REMARKS
QUINCY         SUNNY     75  52  44 S13       30.04F
GALESBURG*     SUNNY     74  55  50 S13G18    30.05F
MACOMB*        SUNNY     76  51  41 S12G18    30.07F
JACKSONVILLE*  SUNNY     79  55  42 S13       30.07F HX  80
PITTSFIELD*    SUNNY     78  53  41 SE10      30.06F
$$

ILZ028>032-037-038-041>044-048-051>054-059>061-192000-
CENTRAL ILLINOIS

CITY           SKY/WX    TMP DP  RH WIND       PRES   REMARKS
PONTIAC        SUNNY     77  48  36 S10G17    30.08F
DECATUR        SUNNY     76  50  40 S12       30.09F
PEORIA         SUNNY     76  53  44 SE10      30.06F
LACON*         SUNNY     74  51  45 S13G18    30.05F
LINCOLN*       SUNNY     78  49  36 S7G17     30.04F
SPRINGFIELD    SUNNY     77  55  46 SE10G18   30.07F
TAYLORVILLE    SUNNY     73  52  46 SE10G16   30.07F
$$

ILZ033-039-045-046-055>057-062-063-192000-
EAST-CENTRAL ILLINOIS

CITY           SKY/WX    TMP DP  RH WIND       PRES   REMARKS
CHAMPAIGN      SUNNY     75  45  34 SE8G20    30.10F
DANVILLE*      SUNNY     75  48  39 SE7       30.09F
RANTOUL*       SUNNY     76  39  26 SE9G17    30.11F
MATTOON        SUNNY     73  49  42 SE8       30.09F
PARIS*         SUNNY     75  49  39 S3        30.12S
$$

ILZ079-100>102-192000-
SOUTHWEST ILLINOIS

CITY           SKY/WX    TMP DP  RH WIND       PRES   REMARKS
ALTON          SUNNY     77  54  44 SE12      30.06F
BELLEVILLE     SUNNY     78  60  54 E10       30.05F
CAHOKIA*       SUNNY     78  58  49 VRB5      30.05F
SPARTA*        SUNNY     78  58  50 E5        30.07F
$$

ILZ064>066-069>071-074>076-080>082-084>086-088>090-092>094-192000-
SOUTH-CENTRAL ILLINOIS

CITY           SKY/WX    TMP DP  RH WIND       PRES   REMARKS
CARBONDALE     MOSUNNY   77  57  50 SE7       30.06F
CAIRO*         SUNNY     81  59  47 E6        30.05F HX  81
EFFINGHAM*     SUNNY     76  46  35 SE10      30.09F
MARION         MOSUNNY   79  57  47 S8        30.07F HX  80
MT. VERNON     SUNNY     77  55  47 NE7       30.08F
CENTRALIA*     SUNNY     77  53  43 E7        30.08F
SALEM*         SUNNY     76  58  52 S5        30.08F
METROPOLIS*    SUNNY     80  58  47 E3        30.04F HX  81
$$

ILZ067-068-072-073-078-083-087-091-192000-
SOUTHEAST ILLINOIS

CITY           SKY/WX    TMP DP  RH WIND       PRES   REMARKS
LAWRENCEVILLE  SUNNY     77  50  38 SE8G17    30.10F
FLORA*         SUNNY     76  52  42 E6        30.09F
FAIRFIELD*     SUNNY    N/A N/A N/A SE5       30.08F
HARRISBURG*    SUNNY     78  53  41 SE7       30.07F
ROBINSON*      SUNNY     77  54  44 SE9       30.11F
CARMI*         SUNNY     81  53  38 E5        30.07S HX  80
$$

ABBREVIATIONS USED IN REMARKS
   TC - TEMPERATURE IN CELSIUS
  WCI - WIND CHILL INDEX
   HX - HEAT INDEX
  VSB - VISIBILITY
$$




USA.gov is the U.S. government's official web portal to all federal, state and local government web resources and services.